NOAA 16 DEB, 41132

Orbit data source: Space-Track

NOAA 16 DEB, 41132 is space debris in SSO originally from a launch on Thu, 21 Sep 2000 UTC launched from the Air Force Western Test Range (AFWTR). Debris objects in space refer to the collection of defunct objects orbiting the Earth. Examples of debris include non-operational satellites, rocket bodies, and fragments generated from explosions, collisions, or faulty payload assembly.

Loading next visibility...
Identifier
41132, 2000-055BP
Orbit
SSO
Country
Flag of USUS
Related business
Manufacturer
Unknown
Mission
Spacecraft
Bus & Motor
Unknown
Mass
Unknown
Launch date (UTC)
2000-09-21 (26 years ago)
Launch vehicle
Unknown
Launch site
Air Force Western Test Range (AFWTR)
Object type
Payload
Rocket body
Debris
Shape & HBR
Unknown shape, 0.1 m
Radar Cross Section
Small (<0.1 m²)

Expand to show TLE details & history
Last TLE update: 4 hours ago

TLE from 4 hours ago
0 NOAA 16 DEB
1 41132U 00055BP  26255.96237270  .00006901  00000-0  12379-2 0  9997
2 41132  98.8644  83.3331 0027676  81.0115 279.4218 14.66846589562561
Epoch: 2026-09-12T23:05Z
TLE epoch observation values (Epoch: 2026-09-12T23:05:49.001Z)
Latitude
0.00004°
Longitude
104.91507°
Altitude
670.984 km
Speed
7.523 km/s
True Right ascension
05h 33m 19s
True Declination
0° 00' 00"
Sunlit
Object was in daylight at epoch
Visualization orbit readout
Latitude
Unknown
Longitude
Unknown
Altitude
Unknown
Speed
Unknown
Apparent Right ascension
Unknown
Apparent Declination
Unknown
Sunlit
N/A
Visualization observer readout
Local Sidereal Time
19:40:12
Azimuth
Unknown
Elevation
Unknown
Doppler factor
Unknown
Orbital elements
Apogee altitude
687.758 km
Perigee altitude
648.755 km
Semi-major axis
7,046.394 km
Eccentricity
0.00277
Inclination
98.8644°
RAAN
83.3331°
Arg. of periapsis
81.0115°
True anomaly
279.10876°
Mean anomaly
279.4218°
Eccentric anomaly
279.2653°
Mean motion
3.66938 °/min
Orbital period
98.11 mins
BSTAR
0.0012379
Loading maneuver chart data...
Computing Atmospheric mass density...
Loading historical data...
Loading historical data...
Loading historical data...
Loading historical data...
Loading historical data...
Loading historical data...
Loading historical data...

Documentation

Showing up to 5 results
|